Flag for United Kingdom Weather past 2 weeks in Milton Keynes, England, United Kingdom

Now
54 °F

Partly sunny.


Feels Like: 53 °F
Forecast: 45 / 64 °F
Wind: 3 mph from North

Location: Cranfield


UV Index: 0 (Low)

Visibility: 4 mi


Pressure: 30.12 "Hg

Humidity: 88%

Dew point: 50 °F

Location of Milton KeynesLocation

Historic Weather in Milton Keynes

°F

Milton Keynes temperature yesterday

Maximum temperature yesterday: 63 °F (at 1:50 PM)
Minimum temperature yesterday: 52 °F (at 8:20 AM)
Average temperature yesterday: 59 °F

Past Weeks' High & Low Weather Summary

 TemperatureHumidityPressure
High66 °F (Apr 21, 2:50 PM)100% (Apr 10, 7:50 AM)30.45 "Hg (Apr 10, 7:50 AM)
Low39 °F (Apr 14, 4:50 PM)39% (Apr 16, 5:50 PM)29.59 "Hg (Apr 20, 5:20 PM)
Average54 °F71%30.09 "Hg
* Reported Apr 9 9:20 AM — Apr 24 9:50 AM, Milton Keynes, Weather by CustomWeather, © 2014

Note: Actual official high and low records may vary slightly from our data, if they occured in-between our weather recording intervals... More about our weather records

Advertising

Historic Weather Conditions — Data for Previous 24 hours

 ConditionsComfort  
Time TempWeatherWind HumidityBarometerVisibility
9:50 AM
Apr 24
52 °FPartly sunny.5 mph94%30.12 "Hg4 mi
9:20 AM54 °FFog.5 mph94%30.12 "Hg2 mi
8:50 AM50 °FFog.3 mph100%30.12 "Hg2 mi
8:20 AM50 °FFog.5 mph100%30.12 "Hg1 mi
5:50 PM
Apr 23
57 °FLight rain. Passing clouds.9 mph77%30.04 "Hg5 mi
5:20 PM59 °FPassing clouds.8 mph72%30.04 "HgN/A
4:50 PM59 °FPassing clouds.12 mph63%30.04 "HgN/A
4:20 PM59 °FPassing clouds.10 mph63%30.04 "HgN/A
3:50 PM59 °FPassing clouds.14 mph63%30.04 "HgN/A
3:20 PM61 °FPassing clouds.13 mph59%30.04 "HgN/A
2:50 PM59 °FPassing clouds.14 mph59%30.04 "HgN/A
2:20 PM61 °FPassing clouds.14 mph59%30.04 "HgN/A
1:50 PM63 °FPassing clouds.14 mph56%30.01 "HgN/A
1:20 PM61 °FPassing clouds.14 mph63%30.01 "HgN/A
12:50 PM61 °FScattered clouds.15 mph63%30.04 "HgN/A
12:20 PM61 °FScattered clouds.14 mph59%30.04 "HgN/A
11:50 AM61 °FPassing clouds.14 mph63%30.01 "HgN/A
11:20 AM61 °FPassing clouds.15 mph72%30.04 "HgN/A
Weather by CustomWeather, © 2014

See weather overview